Location: Saint-Usage
(47.1052°N, 5.2587°E)
Time: 08:50:11
(UTC+01:00)

NOAA 19 - Pass Details

Date: 30 November 2021
Orbit: 841 x 860 km, 99.2° (Epoch: 26 January)

Event Time Altitude Azimuth Distance (km) Brightness Sun altitude
Rises 18:40:08 0° 148° (SSE) 3,384 8.1 -17.8°
Reaches altitude 10° 18:42:31 10° 143° (SE) 2,454 7.4 -18.2°
Maximum altitude 18:47:47 53° 68° (ENE) 1,031 5.2 -19.1°
Drops below altitude 10° 18:53:06 10° 353° (N) 2,476 7.6 -20.0°
Sets 18:55:31 0° 349° (N) 3,417 8.4 -20.4°
